Watford City, ND

4:33 AM CST on December 16, 2019 (GMT -0600)
Watford City

Weather History for KS25 - October, 2019

Change the Weather History Date:

Saturday, October 26, 2019

  Actual Average (WUND) Record (WUND)
Temperature  
Mean Temperature 42 °F -  
Max Temperature 57 °F - - (-1)
Min Temperature 28 °F - - (-1)
Degree Days  
Heating Degree Days 22    
Moisture  
Dew Point 28 °F    
Average Humidity 65    
Maximum Humidity 87    
Minimum Humidity 44    
Precipitation  
Precipitation 0.00 in - - ()
Sea Level Pressure  
Sea Level Pressure 29.82 in    
Wind  
Wind Speed 16 mph (NW)    
Max Wind Speed 26 mph    
Max Gust Speed 36 mph    
Visibility 10 miles    
Events Snow    
Averages and records for this station are not official NWS values.
T = Trace of Precipitation, MM = Missing Value Source: NWS Daily Summary

Daily Weather History Graph

Daily Weather History Graph

Search for Another Location

Airport or City:

Astronomy

Oct. 26, 2019 Rise Set
Actual Time 8:28 AM CDT 6:45 PM CDT
Civil Twilight 7:56 AM CDT 7:16 PM CDT
Nautical Twilight 7:20 AM CDT 7:53 PM CDT
Astronomical Twilight 6:44 AM CDT 8:28 PM CDT
Moon 6:12 AM CDT (10/26) 6:32 PM CDT (10/26)
Length of Visible Light 11h 20m
Length of Day
10h 16m
Waning Crescent, 3% of the Moon is Illuminated
Oct 26
Waning Crescent
Oct 27
New
Nov 4
First Quarter
Nov 12
Full
Nov 19
Last Quarter

Hourly Weather History & Observations

Time (CDT) Temp. Windchill Dew Point Humidity Pressure Visibility Wind Dir Wind Speed Gust Speed Precip Events Conditions
12:15 AM 53.6 °F - 35.6 °F 51% 29.52 in 10.0 mi SW 10.4 mph - N/A   Partly Cloudy
12:35 AM 57.2 °F - 35.6 °F 44% 29.51 in 10.0 mi SW 11.5 mph 17.3 mph N/A   Partly Cloudy
12:55 AM 57.2 °F - 35.6 °F 44% 29.50 in 10.0 mi SSW 13.8 mph - N/A   Clear
1:15 AM 55.4 °F - 35.6 °F 47% 29.52 in 10.0 mi WNW 9.2 mph 16.1 mph N/A   Clear
1:35 AM 51.8 °F - 35.6 °F 54% 29.53 in 10.0 mi SW 10.4 mph 16.1 mph N/A   Clear
1:55 AM 57.2 °F - 35.6 °F 44% 29.53 in 10.0 mi West 15.0 mph - N/A   Clear
2:15 AM 57.2 °F - 35.6 °F 44% 29.54 in 10.0 mi West 10.4 mph - N/A   Clear
2:35 AM 55.4 °F - 35.6 °F 47% 29.54 in 10.0 mi West 17.3 mph 23.0 mph N/A   Clear
2:55 AM 53.6 °F - 35.6 °F 51% 29.56 in 10.0 mi NNW 12.7 mph 21.9 mph N/A   Mostly Cloudy
3:15 AM 50.0 °F - 35.6 °F 58% 29.55 in 10.0 mi NNW 10.4 mph - N/A   Mostly Cloudy
3:35 AM 48.2 °F - 35.6 °F 62% 29.58 in 10.0 mi NNW 8.1 mph - N/A   Partly Cloudy
3:55 AM 48.2 °F - 35.6 °F 62% 29.61 in 10.0 mi NW 11.5 mph 17.3 mph N/A   Clear
4:15 AM 46.4 °F 43.5 °F 33.8 °F 62% 29.60 in 10.0 mi NW 5.8 mph 12.7 mph N/A   Clear
4:35 AM 46.4 °F 42.4 °F 33.8 °F 62% 29.60 in 10.0 mi WNW 8.1 mph - N/A   Clear
4:55 AM 46.4 °F 41.1 °F 33.8 °F 62% 29.61 in 10.0 mi WNW 11.5 mph - N/A   Clear
5:15 AM 44.6 °F 37.8 °F 33.8 °F 66% 29.63 in 10.0 mi WNW 15.0 mph - N/A   Clear
5:35 AM 44.6 °F 38.4 °F 33.8 °F 66% 29.63 in 10.0 mi WNW 12.7 mph 20.7 mph N/A   Clear
5:55 AM 44.6 °F 36.9 °F 33.8 °F 66% 29.63 in 10.0 mi WNW 18.4 mph - N/A   Clear
6:15 AM 42.8 °F 34.3 °F 33.8 °F 70% 29.65 in 10.0 mi WNW 19.6 mph 26.5 mph N/A   Clear
6:35 AM 41.0 °F 30.9 °F 32.0 °F 70% 29.67 in 10.0 mi WNW 24.2 mph 33.4 mph N/A   Clear
6:55 AM 39.2 °F 29.3 °F 30.2 °F 70% 29.68 in 10.0 mi WNW 20.7 mph 32.2 mph N/A   Clear
7:15 AM 39.2 °F 29.6 °F 30.2 °F 70% 29.70 in 10.0 mi WNW 19.6 mph 28.8 mph N/A   Clear
7:35 AM 39.2 °F 30.5 °F 30.2 °F 70% 29.72 in 10.0 mi WNW 16.1 mph 26.5 mph N/A   Partly Cloudy
7:55 AM 39.2 °F 30.2 °F 30.2 °F 70% 29.72 in 10.0 mi WNW 17.3 mph 28.8 mph N/A   Mostly Cloudy
8:15 AM 39.2 °F 29.8 °F 30.2 °F 70% 29.73 in 10.0 mi WNW 18.4 mph 28.8 mph N/A   Overcast
8:35 AM 37.4 °F 26.9 °F 30.2 °F 75% 29.73 in 10.0 mi NW 20.7 mph 27.6 mph N/A   Mostly Cloudy
8:55 AM 37.4 °F 27.2 °F 30.2 °F 75% 29.72 in 10.0 mi NW 19.6 mph 31.1 mph N/A   Mostly Cloudy
9:15 AM 37.4 °F 27.5 °F 30.2 °F 75% 29.76 in 10.0 mi NW 18.4 mph 28.8 mph N/A   Mostly Cloudy
9:35 AM 37.4 °F 26.9 °F 30.2 °F 75% 29.77 in 10.0 mi NW 20.7 mph 35.7 mph N/A   Overcast
9:55 AM 35.6 °F 24.5 °F 32.0 °F 87% 29.79 in 10.0 mi NW 20.7 mph 27.6 mph N/A   Mostly Cloudy
10:15 AM 37.4 °F 26.1 °F 32.0 °F 81% 29.81 in 10.0 mi NW 24.2 mph - N/A   Overcast
10:35 AM 37.4 °F 26.9 °F 32.0 °F 81% 29.83 in 10.0 mi NW 20.7 mph 34.5 mph N/A   Overcast
10:55 AM 37.4 °F 26.9 °F 32.0 °F 81% 29.81 in 10.0 mi NNW 20.7 mph 32.2 mph N/A   Overcast
11:15 AM 35.6 °F 24.0 °F 32.0 °F 87% 29.85 in 5.0 mi NW 23.0 mph 29.9 mph N/A   Mostly Cloudy
11:35 AM 35.6 °F 23.2 °F 32.0 °F 87% 29.86 in 10.0 mi NNW 26.5 mph 34.5 mph N/A   Overcast
11:55 AM 37.4 °F 26.6 °F 30.2 °F 75% 29.85 in 10.0 mi NNW 21.9 mph 29.9 mph N/A   Overcast
12:35 PM 37.4 °F 26.4 °F 28.4 °F 70% 29.87 in 10.0 mi NW 23.0 mph 29.9 mph N/A   Overcast
12:55 PM 37.4 °F 27.2 °F 28.4 °F 70% 29.89 in 10.0 mi NW 19.6 mph 26.5 mph N/A   Overcast
1:15 PM 37.4 °F 27.8 °F 28.4 °F 70% 29.90 in 10.0 mi NW 17.3 mph 27.6 mph N/A   Overcast
1:35 PM 37.4 °F 26.6 °F 28.4 °F 70% 29.90 in 10.0 mi NW 21.9 mph 28.8 mph N/A   Overcast
1:55 PM 35.6 °F 24.8 °F 28.4 °F 75% 29.92 in 10.0 mi WNW 19.6 mph 27.6 mph N/A   Overcast
2:15 PM 35.6 °F 24.8 °F 26.6 °F 70% 29.92 in 10.0 mi NW 19.6 mph 31.1 mph N/A   Overcast
2:35 PM 35.6 °F 24.2 °F 26.6 °F 70% 29.91 in 10.0 mi NW 21.9 mph 31.1 mph N/A   Overcast
2:55 PM 35.6 °F 23.7 °F 26.6 °F 70% 29.89 in 10.0 mi NNW 24.2 mph 32.2 mph N/A   Overcast
3:15 PM 35.6 °F 23.4 °F 24.8 °F 65% 29.91 in 10.0 mi NW 25.3 mph 33.4 mph N/A   Overcast
3:35 PM 35.6 °F 23.4 °F 24.8 °F 65% 29.91 in 10.0 mi NNW 25.3 mph 33.4 mph N/A   Overcast
3:55 PM 35.6 °F 23.7 °F 23.0 °F 60% 29.91 in 10.0 mi NW 24.2 mph 34.5 mph N/A   Overcast
4:15 PM 33.8 °F 22.8 °F 23.0 °F 65% 29.94 in 10.0 mi NW 18.4 mph 29.9 mph N/A   Overcast
4:35 PM 33.8 °F 21.9 °F 23.0 °F 65% 29.94 in 10.0 mi NW 21.9 mph - N/A   Overcast
4:55 PM 33.8 °F 22.5 °F 23.0 °F 65% 29.97 in 10.0 mi NW 19.6 mph 27.6 mph N/A   Overcast
5:15 PM 33.8 °F 22.5 °F 21.2 °F 60% 29.98 in 10.0 mi NW 19.6 mph 28.8 mph N/A   Overcast
5:35 PM 32.0 °F 19.5 °F 21.2 °F 64% 29.99 in 10.0 mi NW 21.9 mph 28.8 mph N/A   Overcast
5:55 PM 32.0 °F 20.8 °F 21.2 °F 64% 30.00 in 10.0 mi NW 17.3 mph 26.5 mph N/A   Overcast
6:15 PM 32.0 °F 21.2 °F 19.4 °F 60% 30.00 in 10.0 mi NW 16.1 mph 23.0 mph N/A   Overcast
6:35 PM 32.0 °F 20.8 °F 19.4 °F 60% 30.01 in 10.0 mi NW 17.3 mph - N/A   Mostly Cloudy
6:55 PM 32.0 °F 19.8 °F 17.6 °F 55% 30.02 in 10.0 mi NW 20.7 mph 26.5 mph N/A   Mostly Cloudy
7:15 PM 32.0 °F 22.1 °F 17.6 °F 55% 30.03 in 10.0 mi NW 13.8 mph 21.9 mph N/A   Overcast
7:35 PM 32.0 °F 20.5 °F 17.6 °F 55% 30.03 in 10.0 mi NNW 18.4 mph - N/A   Mostly Cloudy
7:55 PM 30.2 °F 19.8 °F 17.6 °F 60% 30.04 in 10.0 mi NNW 13.8 mph 19.6 mph N/A   Overcast
8:15 PM 30.2 °F 18.5 °F 17.6 °F 60% 30.05 in 10.0 mi NW 17.3 mph 25.3 mph N/A   Overcast
8:35 PM 30.2 °F 18.1 °F 15.8 °F 55% 30.05 in 10.0 mi NW 18.4 mph 25.3 mph N/A   Overcast
8:55 PM 30.2 °F 18.5 °F 17.6 °F 60% 30.05 in 10.0 mi NW 17.3 mph - N/A   Overcast
9:15 PM 30.2 °F 18.9 °F 17.6 °F 60% 30.05 in 10.0 mi NW 16.1 mph - N/A   Overcast
9:35 PM 30.2 °F 18.5 °F 17.6 °F 60% 30.06 in 10.0 mi NW 17.3 mph - N/A   Overcast
9:55 PM 30.2 °F 18.5 °F 19.4 °F 64% 30.06 in 10.0 mi NW 17.3 mph 24.2 mph N/A   Overcast
10:15 PM 30.2 °F 19.3 °F 21.2 °F 69% 30.07 in 10.0 mi NNW 15.0 mph 28.8 mph N/A   Overcast
10:35 PM 30.2 °F 18.5 °F 21.2 °F 69% 30.07 in 10.0 mi NW 17.3 mph 24.2 mph N/A   Overcast
10:55 PM 30.2 °F 19.3 °F 23.0 °F 75% 30.06 in 8.0 mi NNW 15.0 mph 21.9 mph N/A Snow Light Snow
11:15 PM 28.4 °F 15.4 °F 23.0 °F 80% 30.06 in 10.0 mi NNW 19.6 mph - N/A Snow Light Snow
11:35 PM 28.4 °F 16.6 °F 21.2 °F 74% 30.06 in 10.0 mi NNW 16.1 mph 23.0 mph N/A   Overcast
11:55 PM 28.4 °F 16.2 °F 21.2 °F 74% 30.05 in 10.0 mi NNW 17.3 mph - N/A   Mostly Cloudy